Nome, AK

4:32 AM AKDT on June 26, 2017 (GMT -0800)
Nome

Weather History for PAOM - August, 2014

Change the Weather History Date:

Monday, August 25, 2014

  Actual Average Record
Temperature  
Mean Temperature 56 °F 49 °F  
Max Temperature 65 °F 55 °F 71 °F (2004)
Min Temperature 46 °F 43 °F 27 °F (1920)
Degree Days  
Heating Degree Days 9 16  
Month to date heating degree days 169 366  
Since 1 June heating degree days 1160 1282  
Since 1 July heating degree days 592 766  
Cooling Degree Days 0    
Month to date cooling degree days 1  
Year to date cooling degree days 3  
Since 1 June cooling degree days 3  
Growing Degree Days 5 (Base 50)    
Moisture  
Dew Point 45 °F    
Average Humidity 0    
Maximum Humidity 0    
Minimum Humidity 0    
Precipitation  
Precipitation 0.00 in 0.10 in 1.52 in (1990)
Month to date precipitation 0.95 2.65  
Year to date precipitation 8.26 9.88  
Snow  
Snow 0.00 in 0.00 in T in (1984)
Month to date snowfall 0.0 0.0  
Since 1 June snowfall 0.0 0.3  
Since 1 July snowfall 0.0 0.0  
Snow Depth 0.00 in    
Sea Level Pressure  
Sea Level Pressure 29.67 in    
Wind  
Wind Speed 9 mph (WNW)    
Max Wind Speed 16 mph    
Max Gust Speed 20 mph    
Visibility 10 miles    
Events      
T = Trace of Precipitation, MM = Missing Value Source: NWS Daily Summary

Daily Weather History Graph

Daily Weather History Graph

Search for Another Location

Airport or City:

Trip Planner

Search our weather history database for the weather conditions in past years. The results will help you decide how hot, cold, wet, or windy it might be!

Date:

Astronomy

Aug. 25, 2014 Rise Set
Actual Time 7:22 AM AKDT 10:42 PM AKDT
Civil Twilight 6:24 AM AKDT 11:40 PM AKDT
Nautical Twilight 4:54 AM AKDT 1:07 AM AKDT
Astronomical Twilight Sun does not set Sun does not set
Moon 8:03 AM AKDT (8/25) 10:04 PM AKDT (8/25)
Length of Visible Light 17h 16m
Length of Day
15h 20m
New Moon, 0% of the Moon is Illuminated
Aug 25
New Moon
Sep 2
First Quarter
Sep 8
Full
Sep 15
Last Quarter
Sep 23
New

Hourly Weather History & Observations

Time (AKDT) Temp. Dew Point Humidity Pressure Visibility Wind Dir Wind Speed Gust Speed Precip Events Conditions
12:53 AM 55.9 °F 45.0 °F 67% 29.65 in 10.0 mi North 9.2 mph - N/A   Mostly Cloudy
1:53 AM 54.0 °F 45.0 °F 72% 29.65 in 10.0 mi North 9.2 mph - N/A   Mostly Cloudy
2:53 AM 54.0 °F 44.1 °F 69% 29.65 in 10.0 mi North 9.2 mph - N/A   Mostly Cloudy
3:53 AM 53.1 °F 43.0 °F 69% 29.65 in 10.0 mi North 9.2 mph - N/A   Overcast
4:53 AM 50.0 °F 42.1 °F 74% 29.64 in 10.0 mi North 8.1 mph - N/A   Mostly Cloudy
5:53 AM 50.0 °F 41.0 °F 71% 29.64 in 10.0 mi NNW 3.5 mph - N/A   Mostly Cloudy
6:53 AM 48.9 °F 41.0 °F 74% 29.65 in 10.0 mi Calm Calm - N/A   Mostly Cloudy
7:53 AM 46.0 °F 39.9 °F 79% 29.65 in 10.0 mi Calm Calm - N/A   Mostly Cloudy
8:53 AM 53.1 °F 42.1 °F 66% 29.65 in 10.0 mi NNW 5.8 mph - N/A   Mostly Cloudy
9:53 AM 55.0 °F 43.0 °F 64% 29.66 in 10.0 mi NW 6.9 mph - N/A   Mostly Cloudy
10:53 AM 57.0 °F 43.0 °F 59% 29.66 in 10.0 mi NNW 6.9 mph - N/A   Mostly Cloudy
11:53 AM 61.0 °F 41.0 °F 48% 29.67 in 10.0 mi NNW 6.9 mph - N/A   Mostly Cloudy
12:53 PM 62.1 °F 42.1 °F 48% 29.67 in 10.0 mi SW 10.4 mph - N/A   Mostly Cloudy
1:53 PM 61.0 °F 45.0 °F 56% 29.67 in 10.0 mi WSW 12.7 mph - N/A   Mostly Cloudy
2:53 PM 61.0 °F 48.9 °F 64% 29.68 in 10.0 mi WSW 15.0 mph - N/A   Mostly Cloudy
3:53 PM 61.0 °F 48.0 °F 62% 29.68 in 10.0 mi WSW 15.0 mph - N/A   Mostly Cloudy
4:53 PM 62.1 °F 48.9 °F 62% 29.68 in 10.0 mi WSW 12.7 mph - N/A   Mostly Cloudy
5:53 PM 63.0 °F 50.0 °F 63% 29.68 in 10.0 mi WSW 15.0 mph - N/A   Mostly Cloudy
6:53 PM 64.0 °F 48.9 °F 58% 29.69 in 10.0 mi West 12.7 mph - N/A   Mostly Cloudy
7:53 PM 64.0 °F 48.0 °F 56% 29.69 in 10.0 mi West 11.5 mph - N/A   Mostly Cloudy
8:53 PM 61.0 °F 50.0 °F 67% 29.69 in 10.0 mi West 12.7 mph - N/A   Mostly Cloudy
9:53 PM 59.0 °F 44.1 °F 58% 29.70 in 10.0 mi WNW 9.2 mph - N/A   Mostly Cloudy
10:53 PM 55.9 °F 45.0 °F 67% 29.70 in 10.0 mi NW 5.8 mph - N/A   Mostly Cloudy
11:53 PM 54.0 °F 45.0 °F 72% 29.72 in 10.0 mi West 4.6 mph - N/A   Mostly Cloudy